[[{"header":{"parameterUnit":"m.s-1","parameterCategory":1,"la1":30.2991,"la2":30.254,"lo1":-89.0895,"lo2":-89.0444,"dy":0.0017,"dx":0.0017,"nx":28,"ny":28,"refTime":"2023-08-01T03:00:00:Z","depth":0,"parameterNumber":2,"parameterNumberName":"U-component_of_WINDS"},"data":[0,0,0,0,0,0,0,0,0,0,0,0,0,0,0,0,0,0,0,0,0,0,0,0,0,0,0,0,0,0,0,0,0,0,0,0,0,0,0,0,0,0,0,0,0,0,0,0,0,0,0,0,0,0,0,0,0,0,-0.8714,-0.8714,0,-0.87,-0.87,-0.87,-0.8667,-0.8667,-0.8666,-0.8665,-0.8652,-0.8652,-0.8653,0,0,0,0,0,0,0,0,0,0,0,0,0,-0.8712,-0.8712,-0.8714,-0.8714,-0.8714,-0.87,-0.87,-0.87,-0.8668,-0.8667,-0.8666,-0.8665,-0.8652,-0.8652,-0.8653,0,0,0,0,0,0,0,0,0,0,0,0,0,-0.8707,-0.8712,-0.8714,-0.8696,-0.8694,-0.87,-0.87,-0.87,-0.8668,-0.8667,-0.8666,-0.8665,-0.8652,-0.8652,-0.8653,-0.8676,0,0,-0.8654,-0.8654,0,0,0,0,0,0,0,0,-0.8708,-0.8707,-0.8699,-0.8697,-0.8695,-0.8684,-0.8695,-0.8692,-0.8668,-0.8678,-0.8665,-0.8664,-0.8664,-0.8663,-0.8663,-0.8675,-0.8675,-0.8654,-0.8654,-0.8655,-0.8655,0,0,0,0,0,0,0,-0.8708,-0.8708,-0.8708,-0.8699,-0.8696,-0.8688,-0.8687,-0.8694,-0.8677,-0.8677,-0.8674,-0.8673,-0.8663,-0.8663,-0.8662,-0.8674,-0.8654,-0.8655,-0.8655,-0.8655,-0.8704,-0.8705,0,0,0,0,0,0,-0.8711,-0.8708,-0.8709,-0.8708,-0.8699,-0.8689,-0.8687,-0.8689,-0.8676,-0.8674,-0.8674,-0.8672,-0.8662,-0.8662,-0.8662,-0.8687,-0.8655,-0.8655,-0.8655,-0.8703,-0.8705,-0.8706,0,0,0,0,0,0,-0.8711,-0.8711,-0.8709,-0.8707,-0.8707,-0.869,-0.8693,-0.8689,-0.8689,-0.8674,-0.8671,-0.8677,-0.8662,-0.8661,-0.8672,-0.8687,-0.8655,-0.8656,-0.8702,-0.8704,-0.8705,-0.8739,0,0,0,0,0,0,-0.8711,-0.8711,-0.872,-0.8708,-0.8707,-0.872,-0.8693,-0.869,-0.869,-0.8687,-0.8676,-0.8674,-0.8661,-0.8672,-0.8673,-0.8687,-0.8656,-0.8701,-0.8703,-0.8705,-0.8737,-0.8742,-0.8746,0,0,0,0,0,-0.8711,-0.8731,-0.8721,-0.8721,-0.8717,-0.8721,-0.8721,-0.8705,-0.8691,-0.87,-0.869,-0.8674,-0.8685,-0.8673,-0.8674,-0.8688,-0.87,-0.8702,-0.8704,-0.8735,-0.8741,-0.8746,0,0,0,0,0,0,-0.8745,-0.8729,-0.8718,-0.8734,-0.8729,-0.8716,-0.8726,-0.8712,-0.8712,-0.8709,-0.8689,-0.8687,-0.8701,-0.8696,-0.8683,-0.8709,-0.869,-0.8692,-0.8713,-0.8718,-0.8723,-0.8724,-0.8656,0,0,0,0,0,-0.8755,-0.8759,-0.8744,-0.876,-0.8758,-0.8743,-0.8744,-0.8732,-0.8727,-0.8725,-0.8716,-0.8711,-0.8714,-0.8716,-0.8717,-0.8736,-0.8733,-0.8746,-0.8751,-0.8755,-0.8757,-0.8766,-0.8772,-0.8713,-0.8713,-0.8713,0,0,-0.8774,-0.8766,-0.877,-0.8767,-0.8762,-0.8767,-0.8741,-0.8748,-0.8751,-0.8726,-0.8736,-0.8729,-0.8723,-0.8738,-0.8744,-0.8734,-0.8772,-0.8758,-0.8761,-0.8761,-0.8769,-0.8775,-0.878,-0.8715,-0.8715,-0.8715,0,0,-0.8812,-0.8807,-0.8819,-0.8814,-0.8807,-0.8796,-0.8799,-0.8787,-0.8782,-0.8792,-0.8772,-0.8776,-0.8781,-0.8777,-0.8775,-0.8811,-0.8796,-0.8812,-0.8837,-0.8846,-0.885,-0.8854,-0.8867,-0.8872,-0.8815,-0.8815,-0.8815,0,-0.8838,-0.8845,-0.8827,-0.8834,-0.8834,-0.881,-0.8822,-0.8818,-0.8812,-0.8812,-0.88,-0.8805,-0.8799,-0.8813,-0.8821,-0.8821,-0.8824,-0.8813,-0.8851,-0.8855,-0.8858,-0.887,-0.8875,-0.8817,-0.8816,-0.8816,-0.8816,0,-0.8876,-0.8881,-0.8892,-0.8885,-0.8886,-0.8896,-0.8879,-0.8882,-0.887,-0.886,-0.887,-0.8862,-0.8861,-0.8863,-0.8852,-0.8875,-0.8869,-0.8855,-0.8834,-0.8866,-0.8877,-0.8881,-0.8819,-0.8819,-0.8818,-0.8818,0,0,-0.8936,-0.8919,-0.8923,-0.892,-0.891,-0.8913,-0.8922,-0.8921,-0.8923,-0.8919,-0.8926,-0.893,-0.8916,-0.8915,-0.8902,-0.891,-0.8939,-0.8895,-0.8894,-0.8903,-0.8964,-0.8974,-0.898,-0.8929,-0.893,-0.893,-0.8964,0,-0.8972,-0.8985,-0.8969,-0.8986,-0.899,-0.8968,-0.8975,-0.8969,-0.8961,-0.8963,-0.8953,-0.8956,-0.8938,-0.8937,-0.8944,-0.8934,-0.8951,-0.8931,-0.8935,-0.8935,-0.8937,-0.8986,-0.8997,-0.903,-0.8968,-0.8969,-0.8969,0,-0.9015,-0.9013,-0.903,-0.9018,-0.9019,-0.9027,-0.9024,-0.9026,-0.9019,-0.9012,-0.901,-0.8995,-0.9003,-0.8983,-0.8993,-0.898,-0.898,-0.8976,-0.8976,-0.8976,-0.8954,-0.8987,-0.9039,-0.9044,-0.8976,-0.8975,-0.8975,0,-0.9057,-0.9058,-0.9069,-0.9067,-0.9053,-0.9058,-0.9053,-0.9045,-0.9045,-0.9042,-0.9042,-0.9041,-0.904,-0.9039,-0.9024,-0.9011,-0.9036,-0.9015,-0.903,-0.9031,-0.9037,-0.9037,-0.909,-0.9037,-0.9037,-0.9037,-0.9037,0,-0.9099,-0.911,-0.9087,-0.9094,-0.9106,-0.9087,-0.9099,-0.9092,-0.9085,-0.9089,-0.9069,-0.9074,-0.9054,-0.9056,-0.9045,-0.9055,-0.9054,-0.9049,-0.9046,-0.9051,-0.9051,-0.9051,-0.9048,-0.9038,-0.9038,-0.9038,-0.9038,0,-0.9148,-0.9133,-0.9142,-0.9128,-0.9125,-0.9135,-0.9122,-0.9128,-0.9117,-0.9123,-0.9124,-0.9107,-0.9109,-0.9094,-0.9093,-0.9085,-0.91,-0.9093,-0.9103,-0.91,-0.9117,-0.9115,-0.9172,-0.9178,-0.9121,-0.9122,-0.9122,0,-0.9175,-0.9183,-0.917,-0.9171,-0.9167,-0.9169,-0.9169,-0.9151,-0.9151,-0.9143,-0.915,-0.915,-0.9149,-0.9153,-0.9141,-0.914,-0.9133,-0.9152,-0.9132,-0.9137,-0.9133,-0.9132,-0.9133,-0.9157,-0.9157,-0.9158,-0.9158,0,-0.9226,-0.9217,-0.9218,-0.9215,-0.9215,-0.9212,-0.9208,-0.921,-0.919,-0.9192,-0.9193,-0.9193,-0.9191,-0.9191,-0.9188,-0.9182,-0.9167,-0.9165,-0.9168,-0.9173,-0.9178,-0.9176,-0.9114,-0.9164,-0.9163,-0.9163,-0.9162,-0.9162,-0.9264,-0.927,-0.9262,-0.9262,-0.9257,-0.9254,-0.9258,-0.9247,-0.9248,-0.9245,-0.9234,-0.9238,-0.923,-0.9224,-0.9219,-0.9222,-0.9212,-0.9217,-0.9218,-0.922,-0.9223,-0.9178,-0.9221,-0.9221,-0.9221,-0.922,-0.922,0,-0.9313,-0.9306,-0.9307,-0.9302,-0.9302,-0.9287,-0.9282,-0.9283,-0.9286,-0.928,-0.9279,-0.9281,-0.9281,-0.9268,-0.9267,-0.9271,-0.9264,-0.9271,-0.9271,-0.9269,-0.9232,-0.9229,-0.9277,-0.9277,-0.9277,-0.9277,-0.9277,-0.9277,-0.9339,-0.9348,-0.9339,-0.9345,-0.9338,-0.9341,-0.9339,-0.9335,-0.933,-0.9333,-0.9332,-0.9324,-0.9316,-0.9313,-0.9312,-0.9309,-0.9309,-0.9319,-0.9313,-0.9278,-0.9272,-0.9267,-0.9264,-0.9319,-0.9319,-0.935,-0.9351,-0.9351]},{"header":{"parameterUnit":"m.s-1","parameterCategory":1,"la1":30.2991,"la2":30.254,"lo1":-89.0895,"lo2":-89.0444,"dy":0.0017,"dx":0.0017,"nx":28,"ny":28,"refTime":"2023-08-01T03:00:00:Z","depth":0,"parameterNumber":3,"parameterNumberName":"V-component_of_WINDS"},"data":[0,0,0,0,0,0,0,0,0,0,0,0,0,0,0,0,0,0,0,0,0,0,0,0,0,0,0,0,0,0,0,0,0,0,0,0,0,0,0,0,0,0,0,0,0,0,0,0,0,0,0,0,0,0,0,0,0,0,-1.4094,-1.4095,0,-1.419,-1.4191,-1.4192,-1.4213,-1.4213,-1.4212,-1.4211,-1.4311,-1.4314,-1.4318,0,0,0,0,0,0,0,0,0,0,0,0,0,-1.393,-1.3933,-1.4094,-1.4095,-1.4096,-1.419,-1.4191,-1.4193,-1.4214,-1.4213,-1.4212,-1.4211,-1.431,-1.4314,-1.4318,0,0,0,0,0,0,0,0,0,0,0,0,0,-1.4011,-1.3934,-1.4094,-1.4118,-1.4121,-1.419,-1.4191,-1.4193,-1.4214,-1.4213,-1.4212,-1.4211,-1.4309,-1.4314,-1.4318,-1.437,0,0,-1.4334,-1.4336,0,0,0,0,0,0,0,0,-1.4006,-1.4017,-1.4113,-1.4116,-1.412,-1.4189,-1.417,-1.4252,-1.4214,-1.4179,-1.4211,-1.421,-1.4271,-1.4279,-1.43,-1.4375,-1.4379,-1.4334,-1.4337,-1.4339,-1.4341,0,0,0,0,0,0,0,-1.4001,-1.4013,-1.4132,-1.4115,-1.4119,-1.4125,-1.4135,-1.4186,-1.423,-1.4182,-1.4183,-1.4194,-1.4273,-1.4295,-1.4302,-1.438,-1.4334,-1.4338,-1.4341,-1.4343,-1.4505,-1.4506,0,0,0,0,0,0,-1.3991,-1.4008,-1.4129,-1.4135,-1.406,-1.4129,-1.414,-1.4168,-1.4229,-1.4238,-1.4195,-1.4195,-1.4287,-1.4296,-1.4306,-1.4372,-1.4339,-1.4344,-1.4347,-1.4504,-1.4505,-1.4507,0,0,0,0,0,0,-1.3987,-1.4001,-1.4125,-1.4072,-1.4088,-1.4132,-1.4163,-1.417,-1.4192,-1.424,-1.4248,-1.4209,-1.4286,-1.4299,-1.4354,-1.4376,-1.4346,-1.4351,-1.4502,-1.4504,-1.4506,-1.4504,0,0,0,0,0,0,-1.3982,-1.4,-1.4019,-1.4072,-1.4091,-1.4172,-1.4165,-1.4173,-1.4201,-1.4201,-1.4255,-1.4263,-1.4287,-1.4347,-1.4359,-1.4382,-1.4354,-1.45,-1.4503,-1.4505,-1.4502,-1.4505,-1.4508,0,0,0,0,0,-1.3976,-1.4015,-1.402,-1.4035,-1.4116,-1.4173,-1.4183,-1.421,-1.4202,-1.4223,-1.4253,-1.4261,-1.4371,-1.4352,-1.4367,-1.4391,-1.4499,-1.4502,-1.4505,-1.4501,-1.4505,-1.4508,0,0,0,0,0,0,-1.3963,-1.4022,-1.4029,-1.4085,-1.4124,-1.4176,-1.4203,-1.4213,-1.4254,-1.4253,-1.4284,-1.4296,-1.435,-1.4376,-1.4354,-1.4445,-1.4435,-1.4441,-1.4427,-1.4431,-1.4434,-1.4427,-1.4359,0,0,0,0,0,-1.3966,-1.4007,-1.4056,-1.4101,-1.412,-1.4158,-1.4184,-1.4201,-1.4242,-1.4258,-1.4293,-1.4333,-1.4377,-1.4405,-1.4448,-1.4506,-1.4519,-1.453,-1.4532,-1.4535,-1.454,-1.4574,-1.458,-1.4516,-1.4516,-1.4516,0,0,-1.3974,-1.4012,-1.4035,-1.41,-1.4132,-1.4174,-1.4172,-1.4216,-1.4248,-1.4265,-1.432,-1.4347,-1.4394,-1.4451,-1.4478,-1.4474,-1.456,-1.4539,-1.454,-1.4544,-1.4578,-1.4584,-1.459,-1.4519,-1.4518,-1.4518,0,0,-1.4011,-1.4042,-1.4084,-1.4116,-1.4164,-1.419,-1.42,-1.4251,-1.4269,-1.4325,-1.434,-1.4378,-1.4452,-1.4486,-1.4512,-1.4562,-1.4572,-1.4575,-1.4592,-1.4625,-1.463,-1.4635,-1.4654,-1.4661,-1.458,-1.458,-1.458,0,-1.4014,-1.4078,-1.4104,-1.4148,-1.4177,-1.4195,-1.4238,-1.4268,-1.4328,-1.4348,-1.4342,-1.4437,-1.447,-1.4536,-1.4549,-1.4569,-1.4583,-1.457,-1.4627,-1.4632,-1.4637,-1.4656,-1.4663,-1.458,-1.458,-1.458,-1.458,0,-1.4081,-1.4125,-1.4153,-1.4211,-1.4243,-1.4286,-1.432,-1.4349,-1.4363,-1.4389,-1.4447,-1.4486,-1.4539,-1.4555,-1.4569,-1.4624,-1.4621,-1.4621,-1.4611,-1.4643,-1.4661,-1.4669,-1.4581,-1.4581,-1.4581,-1.4581,0,0,-1.4112,-1.4184,-1.4194,-1.4222,-1.4277,-1.4311,-1.4356,-1.4407,-1.4432,-1.4473,-1.4512,-1.4575,-1.4576,-1.4606,-1.4625,-1.4653,-1.4693,-1.465,-1.4652,-1.4658,-1.4758,-1.4759,-1.4767,-1.4699,-1.4701,-1.4702,-1.4755,0,-1.4156,-1.4236,-1.4262,-1.4329,-1.4371,-1.4389,-1.4428,-1.4467,-1.4493,-1.4532,-1.4561,-1.4606,-1.4602,-1.4621,-1.465,-1.4682,-1.4714,-1.4678,-1.4737,-1.4739,-1.4727,-1.4776,-1.4777,-1.4825,-1.4762,-1.4763,-1.4764,0,-1.4218,-1.426,-1.4332,-1.4384,-1.4402,-1.4437,-1.4487,-1.4524,-1.4568,-1.4585,-1.4619,-1.4636,-1.4684,-1.4671,-1.4739,-1.4715,-1.4741,-1.476,-1.4762,-1.477,-1.4755,-1.4787,-1.4841,-1.4849,-1.4776,-1.4775,-1.4774,0,-1.4235,-1.431,-1.4363,-1.4386,-1.4446,-1.4471,-1.4497,-1.4541,-1.457,-1.4614,-1.4634,-1.4682,-1.4709,-1.4746,-1.4776,-1.4763,-1.4842,-1.4831,-1.4859,-1.4858,-1.4876,-1.4874,-1.4936,-1.4889,-1.4889,-1.4889,-1.4889,0,-1.4283,-1.4326,-1.4372,-1.4405,-1.4455,-1.4484,-1.4533,-1.4561,-1.4599,-1.4639,-1.4657,-1.4693,-1.4729,-1.4771,-1.4794,-1.4848,-1.4859,-1.4875,-1.4881,-1.4875,-1.4873,-1.4893,-1.4891,-1.4891,-1.4891,-1.489,-1.489,0,-1.4311,-1.4343,-1.4402,-1.4455,-1.447,-1.4504,-1.455,-1.4583,-1.461,-1.4659,-1.4673,-1.4714,-1.4764,-1.4797,-1.4861,-1.4876,-1.4936,-1.494,-1.4921,-1.4924,-1.4951,-1.4949,-1.5029,-1.5042,-1.4985,-1.4985,-1.4986,0,-1.434,-1.4374,-1.4431,-1.4458,-1.4485,-1.4529,-1.456,-1.459,-1.4621,-1.4676,-1.4703,-1.4754,-1.4796,-1.4876,-1.4912,-1.4962,-1.4968,-1.4993,-1.4976,-1.4969,-1.4971,-1.4969,-1.4973,-1.4996,-1.4997,-1.4997,-1.4997,0,-1.4388,-1.4403,-1.4446,-1.4495,-1.4531,-1.4571,-1.4611,-1.4633,-1.4671,-1.4705,-1.4756,-1.479,-1.4855,-1.4906,-1.4959,-1.4987,-1.5,-1.5002,-1.5012,-1.5006,-1.4994,-1.5003,-1.4931,-1.5001,-1.5,-1.5,-1.5,-1.5,-1.4419,-1.4451,-1.4496,-1.4544,-1.4578,-1.4615,-1.4649,-1.4681,-1.4724,-1.478,-1.4795,-1.4849,-1.4895,-1.4967,-1.4996,-1.504,-1.5037,-1.505,-1.5054,-1.5057,-1.5058,-1.4986,-1.5049,-1.5049,-1.5049,-1.5049,-1.5049,0,-1.447,-1.45,-1.4544,-1.46,-1.4638,-1.4645,-1.4691,-1.4722,-1.477,-1.4811,-1.4853,-1.4913,-1.4963,-1.5004,-1.5056,-1.5083,-1.509,-1.5095,-1.5095,-1.5101,-1.5057,-1.5044,-1.5089,-1.5089,-1.5089,-1.5089,-1.5089,-1.5089,-1.4501,-1.4556,-1.4576,-1.4648,-1.4678,-1.4732,-1.4757,-1.4793,-1.4826,-1.4892,-1.4934,-1.496,-1.5002,-1.5057,-1.5104,-1.5114,-1.5133,-1.5139,-1.5151,-1.5109,-1.5104,-1.51,-1.5088,-1.5142,-1.5142,-1.5192,-1.5192,-1.5193]}]]